GLOBALSTAR M045 (25676 NORAD) Tracking and Keplerian Element Data

This shows tracking and keplerian element data for the satellite.

Feedback or suggestion? Click here.




ElementValue
Catalog25676
NameGLOBALSTAR M045
Epoch Orbit17730
Epoch Day35.18310015
Epoch Year2025
RAAN324.3602
Inclination51.9995
Eccentricity6.24E-05
Argument of Perigee17.9004
Mean Anonmoly129.4841
Mean Motion12.27055773
Decay Rate-6.3E-07
L11 25676U 99019A 25035.18310015 -.00000063 00000+0 26581-3 0 9992
L22 25676 51.9995 324.3602 0000624 17.9004 129.4841 12.27055773177305



Live tracking and technical data element details for GLOBALSTAR M045 (NORAD 25676). GLOBALSTAR M045 can be tracked NOW for your location showing map with azimuth and elevation plus other details from your city location.







IsCatalogInMostPopularTable: catalog: 25676, numindb: 339
Update: records affected: 1



GetName: 25676 GLOBALSTAR M045

Hit Count: updated at: Fri, 16 May 2025 11:04:10 GMT